Weather History for Victoria, BC

Change the Weather History Date:

Friday, November 16, 2012

  Actual Average Record
Temperature  
Mean Temperature 42 °F -  
Max Temperature 48 °F 46 °F 55 °F (2002)
Min Temperature 35 °F 34 °F 30 °F (2000)
Degree Days  
Heating Degree Days 24    
Moisture  
Dew Point 41 °F    
Average Humidity 88    
Maximum Humidity 100    
Minimum Humidity 75    
Precipitation  
Precipitation 0.01 in 0.19 in - ()
Sea Level Pressure  
Sea Level Pressure 29.84 in    
Wind  
Wind Speed 4 mph ()    
Max Wind Speed 16 mph    
Max Gust Speed 24 mph    
Visibility 15.0 miles    
Events Rain    
Averages and records for this station are not official NWS values.
T = Trace of Precipitation, MM = Missing Value Source: Averaged Metar Reports

Daily Weather History Graph

Daily Weather History Graph

Search for Another Location

Airport:

Trip Planner

Search our weather history database for the weather conditions in past years. The results will help you decide how hot, cold, wet, or windy it might be!

Date:

Astronomy

Nov. 16, 2012 Rise Set
Actual Time 7:24 AM PST 4:32 PM PST
Civil Twilight 6:49 AM PST 5:06 PM PST
Nautical Twilight 6:11 AM PST 5:45 PM PST
Astronomical Twilight 5:34 AM PST 6:22 PM PST
Moon 10:28 AM PST (11/16) 7:35 PM PST (11/16)
Length of Visible Light 10h 16m
Length of Day
9h 07m
Waxing Crescent, 12% of the Moon is Illuminated
Nov 16
Waxing Crescent
Nov 20
First Quarter
Nov 28
Full
Dec 6
Last Quarter
Dec 13
New

Hourly Weather History & Observations

Time (PST) Temp. Windchill Dew Point Humidity Pressure Visibility Wind Dir Wind Speed Gust Speed Precip Events Conditions
12:00 AM 41.0 °F 38.0 °F 39.2 °F 93% 29.95 in 12.0 mi WSW 4.6 mph - N/A   Overcast
12:26 AM 41.0 °F 39.0 °F - N/A% - 12.0 mi West 3.5 mph - N/A   Overcast
1:00 AM 41.0 °F 38.0 °F 39.2 °F 93% 29.94 in 12.0 mi West 4.6 mph - N/A   Overcast
2:00 AM 41.0 °F 39.0 °F 39.2 °F 93% 29.94 in 12.0 mi West 3.5 mph - N/A   Overcast
3:00 AM 41.0 °F - 39.2 °F 93% 29.93 in 10.0 mi Calm Calm - N/A   Mostly Cloudy
4:00 AM 40 °F - 38 °F 91% 29.91 in 12 mi SW 2.3 mph - -   Mostly Cloudy
4:00 AM 39.2 °F - 39.2 °F 100% 29.91 in 12.0 mi SW 2.3 mph - N/A   Mostly Cloudy
5:00 AM 39.2 °F 37.0 °F 39.2 °F 100% 29.91 in 12.0 mi West 3.5 mph - N/A   Overcast
6:00 AM 41.0 °F - 39.2 °F 93% 29.89 in 12.0 mi WSW 2.3 mph - N/A   Overcast
7:00 AM 41.0 °F - 41.0 °F 100% 29.88 in 10.0 mi Calm Calm - N/A   Overcast
7:31 AM 41.0 °F - - N/A% - 10.0 mi Calm Calm - N/A   Overcast
8:00 AM 41.0 °F - 41.0 °F 100% 29.89 in 10.0 mi Calm Calm - N/A   Mostly Cloudy
9:00 AM 42.8 °F - 41.0 °F 93% 29.89 in 15.0 mi Calm Calm - N/A   Mostly Cloudy
10:00 AM 46 °F - 41 °F 76% 29.90 in 19 mi SE 4.6 mph - -   Mostly Cloudy
10:00 AM 46.4 °F 44.3 °F 41.0 °F 81% 29.90 in 20.0 mi SE 4.6 mph - N/A   Mostly Cloudy
11:00 AM 46.4 °F 43.5 °F 41.0 °F 81% 29.89 in 20.0 mi ESE 5.8 mph - N/A   Mostly Cloudy
12:00 PM 46.4 °F 42.9 °F 41.0 °F 81% 29.87 in 20.0 mi SE 6.9 mph - N/A   Mostly Cloudy
1:00 PM 46.4 °F 41.9 °F 41.0 °F 81% 29.86 in 20.0 mi SE 9.2 mph - N/A   Mostly Cloudy
2:00 PM 48.2 °F - 41.0 °F 76% 29.84 in 20.0 mi SSE 5.8 mph - N/A   Mostly Cloudy
3:00 PM 48.2 °F - 41.0 °F 76% 29.81 in 20.0 mi East 2.3 mph - N/A   Mostly Cloudy
4:00 PM 46 °F - 41 °F 75% 29.81 in 28 mi NNE 3.5 mph - -   Overcast
4:00 PM 46.4 °F 45.2 °F 41.0 °F 81% 29.81 in 30.0 mi NNE 3.5 mph - N/A   Overcast
5:00 PM 46.4 °F 43.5 °F 41.0 °F 81% 29.78 in 30.0 mi NE 5.8 mph - N/A   Overcast
6:00 PM 44.6 °F 42.2 °F 42.8 °F 93% 29.77 in 30.0 mi WSW 4.6 mph - N/A Rain Light Rain
6:38 PM 44.6 °F - - N/A% - 30.0 mi Calm Calm - N/A Rain Light Rain
7:00 PM 48.2 °F - 44.6 °F 87% 29.74 in 30.0 mi SE 9.2 mph - N/A Rain Light Rain
7:45 PM 48.2 °F - - N/A% - 30.0 mi SE 8.1 mph - N/A   Overcast
8:00 PM 48.2 °F - 42.8 °F 82% 29.72 in 30.0 mi ESE 8.1 mph - N/A   Overcast
8:22 PM 48.2 °F - - N/A% - 30.0 mi ESE 5.8 mph - N/A Rain Light Rain
9:00 PM 48.2 °F - 44.6 °F 87% 29.71 in 20.0 mi SE 2.3 mph - N/A Rain Light Rain
9:35 PM 48.2 °F - - N/A% - 20.0 mi Calm Calm - N/A Rain Light Rain
10:00 PM 48 °F - 46 °F 88% 29.69 in 15 mi SE 9.2 mph - - Rain Light Rain
10:00 PM 48.2 °F - 46.4 °F 93% 29.69 in 15.0 mi SE 10.4 mph - N/A Rain Light Rain
11:00 PM 48.2 °F - 46.4 °F 93% 29.65 in 15.0 mi SE 16.1 mph 24.2 mph N/A Rain Light Rain